Location: Newark
(46.7000°N, 60.6000°W)
Time: 08:35:38
(UTC+00:00)

Vanguard 3 - Pass Details

Date: 31 October 2020
Orbit: 508 x 3262 km, 33.3° (Epoch: 29 November)

Event Time Altitude Azimuth Distance (km) Brightness Sun altitude
Rises 07:21:44 0° 209° (SSW) 5,579 - -34.8°
Reaches altitude 10° 07:25:36 10° 199° (SSW) 4,942 - -34.2°
Exits shadow 07:27:19 15° 194° (SSW) 4,711 10.7 -33.9°
Maximum altitude 07:38:14 32° 144° (SE) 4,268 10.8 -32.1°
Drops below altitude 10° 07:53:58 10° 92° (E) 6,203 12.5 -29.5°
Sets 07:59:32 0° 84° (E) 7,161 13.2 -28.5°
